Flag for Jamaica Weather past 2 weeks in May Pen, Jamaica

Now
88 °F

Scattered clouds.


Feels Like: 100 °F
Forecast: N/A
Wind: 23 mph from Southeast

Location: Kingston / Norman Manley

Current Time: Aug 27, 2014 at 6:22:26 PM

Latest Report: Aug 27, 2014 at 5:00 PM


Visibility: N/A

Pressure: 29.89 "Hg

Humidity: 70%

Dew point: 77 °F

Location of May PenLocation

Historic Weather in May Pen — Graph

°F

May Pen temperature yesterday

Maximum temperature yesterday: 90 °F (at 1:00 PM)
Minimum temperature yesterday: 79 °F (at 5:00 PM)
Average temperature yesterday: 85 °F

Past Weeks' High & Low Weather Summary

 TemperatureHumidityPressure
High93 °F (Aug 17, 2:00 PM)89% (Aug 15, 1:00 AM)30.01 "Hg (Aug 15, 1:00 AM)
Low79 °F (Aug 26, 5:00 PM)56% (Aug 17, 4:00 PM)29.71 "Hg (Aug 24, 3:00 PM)
Average86 °F73%29.90 "Hg
* Reported Aug 12 5:00 PM — Aug 27 5:00 PM, May Pen, Weather by CustomWeather, © 2014

Note: Actual official high and low records may vary slightly from our data, if they occured in-between our weather recording intervals... More about our weather records

Advertising

May Pen weather history for previous 24 hours

 ConditionsComfort  
Time TempWeatherWind HumidityBarometerVisibility
5:00 PM
Aug 27
88 °FScattered clouds.23 mph70%29.89 "HgN/A
4:00 PM88 °FScattered clouds.25 mph75%29.89 "HgN/A
3:00 PM90 °FScattered clouds.24 mph71%29.89 "HgN/A
2:00 PM90 °FScattered clouds.24 mph71%29.89 "HgN/A
1:00 PMN/A23 mphN/AN/AN/A
12:00 PM91 °FScattered clouds.25 mph63%29.95 "HgN/A
11:00 AM90 °FScattered clouds.23 mph71%29.95 "HgN/A
10:00 AM90 °FScattered clouds.22 mph71%29.92 "HgN/A
9:00 AM88 °FScattered clouds.20 mph70%29.92 "HgN/A
8:00 AM86 °FPartly sunny.15 mph70%29.89 "HgN/A
7:00 AM82 °FScattered clouds.8 mph79%29.89 "HgN/A
6:00 AM82 °FPassing clouds.7 mph79%29.89 "HgN/A
5:00 AM81 °FPassing clouds.7 mph84%29.89 "HgN/A
4:00 AM81 °FPassing clouds.7 mph84%29.86 "HgN/A
3:00 AM81 °FPassing clouds.3 mph84%29.89 "HgN/A
2:00 AM79 °FPartly cloudy.3 mph89%29.92 "HgN/A
1:00 AM82 °FPartly cloudy.6 mph84%29.92 "HgN/A
12:00 AM84 °FThundershowers. Partly cloudy.9 mph74%29.92 "HgN/A
11:00 PM
Aug 26
84 °FLight rain. Passing clouds.12 mph74%29.92 "HgN/A
10:00 PM86 °FThundershowers. Passing clouds.12 mph66%29.95 "HgN/A
9:00 PM84 °FPassing clouds.10 mph70%29.92 "HgN/A
8:00 PM84 °FPassing clouds.14 mph70%29.86 "HgN/A
7:00 PM82 °FPassing clouds.13 mph70%29.86 "HgN/A
6:00 PM81 °FSprinkles. Partly sunny.15 mph79%29.89 "HgN/A
Weather by CustomWeather, © 2014

See weather overviewHow to use our weather pages